Regional Weather Roundup
Issued by NWS Wilmington, NC

Home | Current Version | Previous Version | Text Only | Print | Product List | Glossary On
Versions: 1 2 3 4 5 6 7 8 9 10 11 12 13 14 15 16 17 18 19 20 21 22 23 24 25 26 27 28 29 30 31 32 33 34 35 36 37 38 39 40 41 42 43 44 45 46 47 48 49 50
000
ASUS42 KILM 291513
RWRILM
RWRILM
REGIONAL HOURLY WEATHER ROUNDUP
NATIONAL WEATHER SERVICE WILMINGTON NC
1100 AM EDT SAT APR 29 2017

NOTE: "FAIR" INDICATES FEW OR NO CLOUDS BELOW 12,000 FEET WITH NO
SIGNIFICANT WEATHER AND/OR OBSTRUCTIONS TO VISIBILITY.

...............WFO WILMINGTON COUNTY WARNING AREA...............

......COASTAL NC AND SC COUNTIES......

CITY           SKY/WX    TMP DP  RH WIND       PRES   REMARKS
WILMINGTON     MOSUNNY   83  70  64 SW13G22   30.23S
N MYRTLE BEACH MOSUNNY   78  73  84 S8        30.24S
MYRTLE BEACH   MOSUNNY   81  73  78 S8        30.25R

......INLAND NC AND SC COUNTIES.......

CITY           SKY/WX    TMP DP  RH WIND       PRES   REMARKS
LUMBERTON      MOSUNNY   80  71  74 SW10      30.21F
ELIZABETHTOWN  PTSUNNY   82  70  66 S13       30.23S
WHITEVILLE     MOSUNNY   82  70  66 S9        30.23S
FLORENCE       PTSUNNY   83  71  67 S10G20    30.22S
DARLINGTON     MOSUNNY   81  70  69 S14       30.22S
KINGSTREE      PTSUNNY   81  68  65 S8        30.22S
HARTSVILLE     FAIR      79  68  69 SW8       30.21F
BENNETTSVILLE  FAIR      82  72  69 S10       30.21S
CONWAY         FAIR      81  70  69 SW10      30.24S HAZE
GEORGETOWN     FAIR      81  70  69 S9G18     30.24F
MARION         CLOUDY    81  68  65 S8        30.22F

....................REST OF NORTH CAROLINA......................

.........EASTERN NC.........

CITY           SKY/WX    TMP DP  RH WIND       PRES   REMARKS
CAPE HATTERAS  MOSUNNY   78  71  79 SW10      30.24S HAZE
JACKSONVILLE   MOSUNNY   83  71  67 SW13G20   30.23F
MOREHEAD CITY  PTSUNNY   79  75  87 SW16      30.24S
KENANSVILLE    MOSUNNY   82  70  65 S7        30.23S
NEW BERN       MOSUNNY   83  71  67 SW12G20   30.23S
ELIZABETH CITY LGT RAIN  81  74  79 SW16      30.18F

.........CENTRAL NC.........

CITY           SKY/WX    TMP DP  RH WIND       PRES   REMARKS
RALEIGH DURHAM MOSUNNY   81  70  69 SW9       30.21S
ROCKY MOUNT    MOSUNNY   81  71  71 SW10      30.21S
ROANOKE RAPIDS NOT AVBL
FAYETTEVILLE   SUNNY     83  70  64 SW12      30.21S
HOFFMAN        MOSUNNY   83  68  60 SW12      30.20F

.........WESTERN NC.........

CITY           SKY/WX    TMP DP  RH WIND       PRES   REMARKS
CHARLOTTE      PTSUNNY   77  68  73 SW8       30.22R
GREENSBORO     CLOUDY    75  71  87 SW8       30.21R
HICKORY        NOT AVBL
BOONE          NOT AVBL
ASHEVILLE      NOT AVBL

.....................REST OF SOUTH CAROLINA.....................

.........EASTERN SC.........

CITY           SKY/WX    TMP DP  RH WIND       PRES   REMARKS
CHARLESTON     MOSUNNY   80  70  71 SW12      30.23F
BEAUFORT MCAS  MOSUNNY   76  72  87 S8        30.22F
HILTON HEAD    MOSUNNY   81  73  78 S10       30.23F

.........CENTRAL SC.........

CITY           SKY/WX    TMP DP  RH WIND       PRES   REMARKS
COLUMBIA       PTSUNNY   82  68  62 S12       30.20S
ORANGEBURG     PTSUNNY   81  69  67 S7G17     30.21F
SUMTER SHAW    SUNNY     81  69  68 S10       30.19S

.........WESTERN SC.........

CITY           SKY/WX    TMP DP  RH WIND       PRES   REMARKS
GREENVILLE     NOT AVBL
ROCK HILL      PTSUNNY   78  69  73 S8        30.21S
ANDERSON       SUNNY     79  69  71 S8        30.19R
CLEMSON        NOT AVBL
GREENWOOD      CLOUDY    75  68  78 S8        30.22R


...................COASTAL AND OFFSHORE REPORTS..................

................LOCAL PIERS AND NC RESERVE................


STATION/POSITION TIME  SKY/WX   TEMP    WIND        PRES    VSBY
                                AIR SEA DIR/SP/G
                 (UTC)          (F)     (DEG/KT/KT) (MB)    (MI)
JOHNY MRCER PIER 1448            74 72  180/ 15/ 16 1022.7F
NC RESRV MASNBRO 1345            78     250/  6     1025.0
OCEAN CREST PIER NOT AVBL
SPRINGMAID  PIER 1448                               1023.6R


................COASTAL AND OFFSHORE BUOYS................


STATION/POSITION TIME  SKY/WX   TEMP    WIND        PRES    VSBY
                                AIR SEA DIR/SP/G
                 (UTC)          (F)     (DEG/KT/KT) (MB)    (MI)
DIMNDSHOAL 41025 1450            77 76  230/ 14/ 17 1024.0R
WVE H/P(F/S)=  4/ 6 SWL H/P/D(F/S/D)=  2/120/ 8

CAPE LOOKOUT     1500            76     220/  8/ 11 1023.8R
ONSLOW BAY 41036 NOT AVBL
ONSLOW BAY 41064 1408            73     220/  6/  8 1024.5R
ONSLOW BAY 41159 1443               73                N/A
WVE H/P(F/S)=  4/ 6

MASNBO INL 41110 1459               71                N/A
WVE H/P(F/S)=  3/ 6

WILM HARBR 41108 1447               74                N/A
WVE H/P(F/S)=  4/ 6

27SE WRITB 41037 1408            74 73  280/  4/  8 1023.9R
FRYING PAN 41013 1450            75 73  190/ 10/ 10 1024.3R
WVE H/P(F/S)=  4/ 5 SWL H/P/D(F/S/D)=  3/160/ 5

SUNST NRSH 41024 1408            73 72  180/  4/  6 1024.0R
CAPRS NRSH 41029 1408            75 74  190/  2/  6 1024.0R
EDISTO     41004 1450            76 74  180/  8/ 10 1024.0S
WVE H/P(F/S)=  4/ 6 SWL H/P/D(F/S/D)=  3/140/ 6



..........OFFSHORE BUOYS BEYOND 100 NM OFFSHORE...........
.....IN A TRIANGLE---HAT TO BERMUDA TO BAHAMAS TO HAT.....


STATION/POSITION TIME  SKY/WX   TEMP    WIND        PRES    VSBY
                                AIR SEA DIR/SP/G
                 (UTC)          (F)     (DEG/KT/KT) (MB)    (MI)
150E HAT   41001 1500            74 73  200/  8/ 10 1026.3
W BERMUDA  41048 1500            72 72  170/  8/ 10 1028.0
ATLANTIC S 41049 1450            72 73   60/ 12/ 14 1026.6F
WVE H/P(F/S)=  4/ 7 SWL H/P/D(F/S/D)=  3/110/ 7

E BAHAMAS  41046 1500            76 77   90/ 17/ 23 1022.9
NE BAHAMAS 41047 1500            76 76  110/ 14/ 16 1025.8
120E CANVRL41010 1500            78 79  120/ 14/ 17 1023.4

END



USA.gov is the U.S. government's official web portal to all federal, state and local government web resources and services.